Hourly Data Report for November 17, 2016

All times are specified in Local Standard Time (LST). Add 1 hour to adjust for Daylight Saving Time where and when it is observed.

KITCHENER/WATERLOO
ONTARIO

43°27'39.000" N
80°22'43.000" W
321.60 m
6144239
71368
YKF

Download Data

Hourly Data (November 2016)
Hourly Data Report for November 17, 2016
Temp Definition
°C
Dew Point Temp Definition
°C
Rel Hum Definition
%
Wind Dir Definition
10's deg

Wind Spd Definition
km/h
Visibility Definition
km
Stn Press Definition
kPa
Hmdx Definition


Wind Chill Definition


Weather Definition


TIME
00:00 Legend Double Dagger 2.3 1.9 97 31 9 9.7 97.79     Fog
01:00 Legend Double Dagger 1.5 1.2 98   0 0.4 97.80     Rain,Fog
02:00 Legend Double Dagger -0.2 -0.3 99 LegendMM 4 0.4 97.87   -1 Freezing Fog
03:00 Legend Double Dagger -0.7 -0.8 99 2 5 0.4 97.88   -2 Heavy Snow
04:00 Legend Double Dagger -0.4 -0.5 99 31 4 0.2 97.93   -2 Freezing Fog
05:00 Legend Double Dagger -0.6 -0.7 99 33 4 0.2 97.99   -2 Freezing Fog
06:00 Legend Double Dagger -1.7 -1.8 99   0 0.4 97.99     Heavy Snow
07:00 Legend Double Dagger -1.5 -1.6 99 1 5 0.2 98.06   -3 Freezing Fog
08:00 Legend Double Dagger -1.3 -1.4 99 32 4 0.2 98.10   -3 Freezing Fog
09:00 Legend Double Dagger -0.6 -0.7 99   0 0.4 98.12     Freezing Fog
10:00 Legend Double Dagger 1.5 1.2 98 LegendMM 4 0.4 98.15     Fog
11:00 Legend Double Dagger 6.3 6.0 98 14 8 16.1 98.13     LegendNANA
12:00 Legend Double Dagger 9.3 6.3 82 16 17 16.1 98.04     LegendNANA
13:00 Legend Double Dagger 11.5 4.2 61 19 15 16.1 97.96     LegendNANA
14:00 Legend Double Dagger 12.2 5.5 64 17 15 16.1 97.91     LegendNANA
15:00 Legend Double Dagger 12.2 6.0 66 16 17 16.1 97.89     LegendNANA
16:00 Legend Double Dagger 11.2 6.5 73 15 17 16.1 97.89     LegendNANA
17:00 Legend Double Dagger 9.3 6.1 80 14 17 16.1 97.88     LegendNANA
18:00 Legend Double Dagger 6.8 4.6 86 14 13 16.1 97.90     LegendNANA
19:00 Legend Double Dagger 6.0 4.0 87 14 13 14.5 97.89     LegendNANA
20:00 Legend Double Dagger 5.8 3.8 87 13 13 16.1 97.86     LegendNANA
21:00 Legend Double Dagger 5.0 3.3 89 13 8 16.1 97.92     LegendNANA
22:00 Legend Double Dagger 3.2 2.0 92 8 9 16.1 97.88     LegendNANA
23:00 Legend Double Dagger 1.7 1.1 96 10 8 11.3 97.86     LegendNANA

Notes on Data Quality.

Legend

  • E = Estimated
  • M = Missing
  • NA = Not Available
  • ‡ = Partner data that is not subject to review by the National Climate Archives
Date modified: